Weather History for Clarksville, TX

Change the Weather History Date:

Saturday, December 7, 2013

  Actual Average (KPRX) Record (KPRX)
Temperature  
Mean Temperature 30 °F -  
Max Temperature 34 °F 54 °F 75 °F (2007)
Min Temperature 26 °F 37 °F 23 °F (2011)
Degree Days  
Heating Degree Days 35    
Moisture  
Dew Point 25 °F    
Average Humidity 82    
Maximum Humidity 93    
Minimum Humidity 70    
Precipitation  
Precipitation 0.00 in - - ()
Sea Level Pressure  
Sea Level Pressure 30.43 in    
Wind  
Wind Speed 7 mph (NNE)    
Max Wind Speed 10 mph    
Max Gust Speed -    
Visibility 9 miles    
Events      
Averages and records for this station are not official NWS values.
T = Trace of Precipitation, MM = Missing Value Source: NWS Daily Summary

Daily Weather History Graph

Daily Weather History Graph

Search for Another Location

Airport:

Trip Planner

Search our weather history database for the weather conditions in past years. The results will help you decide how hot, cold, wet, or windy it might be!

Date:

Astronomy

Dec. 07, 2013 Rise Set
Actual Time 7:11 AM CST 5:11 PM CST
Civil Twilight 6:44 AM CST 5:39 PM CST
Nautical Twilight 6:13 AM CST 6:10 PM CST
Astronomical Twilight 5:43 AM CST 6:40 PM CST
Moon 11:07 AM CST (12/7) 10:43 PM CST (12/7)
Length of Visible Light 10h 55m
Length of Day
10h 00m
Waxing Crescent, 29% of the Moon is Illuminated
Dec 7
Waxing Crescent
Dec 9
First Quarter
Dec 17
Full
Dec 25
Last Quarter
Jan 1
New

Hourly Weather History & Observations

Time (CST) Temp. Windchill Dew Point Humidity Pressure Visibility Wind Dir Wind Speed Gust Speed Precip Events Conditions
12:15 AM 27.3 °F 20.9 °F 25.2 °F 92% 30.48 in 7.0 mi NNW 5.8 mph - N/A   Scattered Clouds
12:35 AM 27.1 °F 18.9 °F 25.3 °F 93% 30.48 in 7.0 mi NNW 8.1 mph - N/A   Mostly Cloudy
12:55 AM 27.1 °F 20.7 °F 24.8 °F 91% 30.48 in 7.0 mi NNW 5.8 mph - N/A   Mostly Cloudy
1:15 AM 27.3 °F 18.4 °F 25.0 °F 91% 30.48 in 7.0 mi NNW 9.2 mph - N/A   Mostly Cloudy
1:35 AM 27.3 °F 19.9 °F 25.0 °F 91% 30.48 in 7.0 mi NNW 6.9 mph - N/A   Overcast
1:55 AM 27.3 °F 19.9 °F 25.0 °F 91% 30.48 in 7.0 mi NNW 6.9 mph - N/A   Overcast
2:15 AM 27.1 °F 19.7 °F 24.8 °F 91% 30.49 in 10.0 mi NNW 6.9 mph - N/A   Overcast
2:35 AM 27.1 °F 19.7 °F 24.8 °F 91% 30.49 in 10.0 mi NNW 6.9 mph - N/A   Overcast
2:55 AM 26.8 °F 17.7 °F 24.3 °F 90% 30.49 in 10.0 mi NNW 9.2 mph - N/A   Overcast
3:15 AM 26.1 °F 17.6 °F 23.5 °F 90% 30.48 in 10.0 mi NNW 8.1 mph - N/A   Scattered Clouds
3:35 AM 26.1 °F 18.4 °F 23.9 °F 92% 30.48 in 10.0 mi North 6.9 mph - N/A   Mostly Cloudy
3:55 AM 26.4 °F 18.9 °F 23.9 °F 90% 30.48 in 10.0 mi North 6.9 mph - N/A   Overcast
4:15 AM 26.6 °F 17.5 °F 23.9 °F 90% 30.48 in 10.0 mi North 9.2 mph - N/A   Overcast
4:35 AM 26.6 °F 18.2 °F 23.9 °F 90% 30.49 in 10.0 mi NNW 8.1 mph - N/A   Overcast
4:55 AM 26.6 °F 20.0 °F 24.1 °F 90% 30.49 in 10.0 mi NNW 5.8 mph - N/A   Overcast
5:15 AM 26.6 °F 20.0 °F 24.1 °F 90% 30.50 in 10.0 mi NNW 5.8 mph - N/A   Overcast
5:35 AM 26.6 °F 20.0 °F 24.3 °F 91% 30.50 in 10.0 mi NNW 5.8 mph - N/A   Overcast
5:55 AM 26.6 °F 20.0 °F 24.4 °F 92% 30.50 in 10.0 mi North 5.8 mph - N/A   Overcast
6:15 AM 26.6 °F 19.1 °F 24.6 °F 92% 30.51 in 10.0 mi NNW 6.9 mph - N/A   Overcast
6:35 AM 26.8 °F 19.3 °F 24.8 °F 92% 30.52 in 10.0 mi NNW 6.9 mph - N/A   Overcast
6:55 AM 26.8 °F 20.2 °F 24.8 °F 92% 30.52 in 10.0 mi NNW 5.8 mph - N/A   Overcast
7:15 AM 26.6 °F 19.1 °F 24.8 °F 93% 30.52 in 10.0 mi North 6.9 mph - N/A   Overcast
7:35 AM 27.1 °F 19.7 °F 25.3 °F 93% 30.52 in 10.0 mi North 6.9 mph - N/A   Overcast
7:55 AM 27.5 °F 20.2 °F 25.7 °F 93% 30.51 in 7.0 mi North 6.9 mph - N/A   Overcast
8:15 AM 28.0 °F 20.8 °F 26.1 °F 92% 30.51 in 7.0 mi North 6.9 mph - N/A   Overcast
8:35 AM 28.8 °F - 26.6 °F 92% 30.53 in 10.0 mi Calm Calm - N/A   Overcast
8:55 AM 29.3 °F 24.3 °F 26.6 °F 90% 30.53 in 10.0 mi North 4.6 mph - N/A   Overcast
9:15 AM 29.7 °F 22.8 °F 26.8 °F 89% 30.53 in 10.0 mi NNE 6.9 mph - N/A   Overcast
9:35 AM 30.0 °F 25.2 °F 27.0 °F 88% 30.53 in 10.0 mi NNE 4.6 mph - N/A   Overcast
9:55 AM 30.2 °F 24.3 °F 27.0 °F 88% 30.53 in 10.0 mi NNE 5.8 mph - N/A   Overcast
10:15 AM 30.6 °F 22.4 °F 26.6 °F 85% 30.52 in 10.0 mi NNE 9.2 mph - N/A   Overcast
10:35 AM 30.7 °F 23.3 °F 26.6 °F 85% 30.52 in 7.0 mi NNE 8.1 mph - N/A   Overcast
10:55 AM 30.9 °F 23.5 °F 26.6 °F 84% 30.51 in 7.0 mi NNE 8.1 mph - N/A   Overcast
11:15 AM 31.1 °F 24.5 °F 26.6 °F 83% 30.51 in 10.0 mi NNE 6.9 mph - N/A   Overcast
11:35 AM 31.8 °F 24.6 °F 27.1 °F 83% 30.49 in 10.0 mi NNE 8.1 mph - N/A   Overcast
11:55 AM 32.2 °F 25.8 °F 27.3 °F 82% 30.48 in 10.0 mi North 6.9 mph - N/A   Overcast
12:15 PM 32.0 °F 24.2 °F 25.5 °F 77% 30.45 in 7.0 mi North 9.2 mph - N/A   Overcast
12:35 PM 32.2 °F 27.7 °F 25.7 °F 77% 30.47 in 10.0 mi NE 4.6 mph - N/A   Overcast
12:55 PM 32.9 °F 27.5 °F 26.2 °F 76% 30.44 in 7.0 mi NE 5.8 mph - N/A   Overcast
1:15 PM 33.3 °F 27.9 °F 26.2 °F 75% 30.43 in 10.0 mi North 5.8 mph - N/A   Overcast
1:35 PM 33.4 °F 30.4 °F 26.2 °F 75% 30.41 in 10.0 mi NE 3.5 mph - N/A   Overcast
1:55 PM 34.0 °F 28.0 °F 26.2 °F 73% 30.40 in 7.0 mi NE 6.9 mph - N/A   Mostly Cloudy
2:15 PM 34.7 °F 27.5 °F 26.1 °F 71% 30.39 in 10.0 mi NNE 9.2 mph - N/A   Mostly Cloudy
2:35 PM 34.0 °F - 28.2 °F 79% 30.38 in 10.0 mi Calm Calm - N/A   Mostly Cloudy
2:55 PM 34.7 °F 29.6 °F 26.2 °F 71% 30.38 in 10.0 mi NNE 5.8 mph - N/A   Mostly Cloudy
3:15 PM 34.7 °F 28.8 °F 26.2 °F 71% 30.37 in 10.0 mi NNE 6.9 mph - N/A   Mostly Cloudy
3:35 PM 34.3 °F 27.0 °F 25.3 °F 70% 30.37 in 10.0 mi NE 9.2 mph - N/A   Overcast
3:55 PM 34.2 °F 29.0 °F 25.5 °F 71% 30.36 in 10.0 mi NE 5.8 mph - N/A   Overcast
4:15 PM 34.0 °F 28.8 °F 25.7 °F 72% 30.35 in 10.0 mi NE 5.8 mph - N/A   Overcast
4:35 PM 34.0 °F 28.8 °F 25.9 °F 72% 30.35 in 7.0 mi ENE 5.8 mph - N/A   Overcast
4:55 PM 34.0 °F 29.8 °F 26.1 °F 73% 30.35 in 10.0 mi NE 4.6 mph - N/A   Overcast
5:15 PM 34.0 °F 28.8 °F 26.1 °F 73% 30.35 in 7.0 mi NE 5.8 mph - N/A   Overcast
5:35 PM 34.0 °F - 26.4 °F 74% 30.36 in 7.0 mi Calm Calm - N/A   Overcast
5:55 PM 33.8 °F - 25.7 °F 72% 30.36 in 10.0 mi Calm Calm - N/A   Overcast
6:15 PM 33.8 °F 28.6 °F 26.2 °F 74% 30.34 in 10.0 mi East 5.8 mph - N/A   Overcast
6:35 PM 33.1 °F 27.7 °F 26.1 °F 75% 30.35 in 10.0 mi ENE 5.8 mph - N/A   Overcast
6:55 PM 33.1 °F 30.0 °F 26.2 °F 76% 30.35 in 10.0 mi NE 3.5 mph - N/A   Overcast
7:15 PM 32.9 °F 27.5 °F 25.9 °F 75% 30.36 in 10.0 mi NNE 5.8 mph - N/A   Overcast
7:35 PM 32.5 °F 25.5 °F 24.8 °F 73% 30.35 in 10.0 mi ENE 8.1 mph - N/A   Overcast
7:55 PM 32.4 °F 24.6 °F 24.8 °F 74% 30.36 in 10.0 mi NE 9.2 mph - N/A   Overcast
8:15 PM 32.2 °F 25.8 °F 24.3 °F 73% 30.36 in 10.0 mi ENE 6.9 mph - N/A   Overcast
8:35 PM 32.0 °F 25.6 °F 24.3 °F 73% 30.35 in 10.0 mi ENE 6.9 mph - N/A   Overcast
8:55 PM 32.0 °F 25.6 °F 24.8 °F 75% 30.34 in 10.0 mi East 6.9 mph - N/A   Overcast
9:15 PM 32.0 °F 27.5 °F 24.8 °F 75% 30.33 in 10.0 mi East 4.6 mph - N/A   Overcast
9:35 PM 32.0 °F 23.6 °F 24.8 °F 75% 30.31 in 10.0 mi East 10.4 mph - N/A   Overcast
9:55 PM 32.0 °F 23.6 °F 24.6 °F 74% 30.29 in 10.0 mi East 10.4 mph - N/A   Mostly Cloudy
10:15 PM 31.8 °F 23.9 °F 24.8 °F 75% 30.29 in 10.0 mi East 9.2 mph - N/A   Mostly Cloudy
10:35 PM 31.5 °F 25.8 °F 24.3 °F 75% 30.29 in 10.0 mi East 5.8 mph - N/A   Scattered Clouds
10:55 PM 31.6 °F - 24.8 °F 76% 30.31 in 10.0 mi Calm Calm - N/A   Overcast
11:15 PM 31.5 °F 24.9 °F 24.8 °F 76% 30.31 in 10.0 mi East 6.9 mph - N/A   Overcast
11:35 PM 31.1 °F 24.5 °F 24.8 °F 77% 30.31 in 10.0 mi ESE 6.9 mph - N/A   Overcast
11:55 PM 31.1 °F 25.4 °F 25.2 °F 79% 30.30 in 10.0 mi East 5.8 mph - N/A   Overcast